STARLINK-34094 (63822 NORAD) Tracking and Keplerian Element Data

This shows tracking and keplerian element data for the satellite.

Feedback or suggestion? Click here.




ElementValue
Catalog63822
NameSTARLINK-34094
Epoch Orbit3643
Epoch Day353.47483578
Epoch Year2025
RAAN262.343
Inclination43.0016
Eccentricity0.0001089
Argument of Perigee281.2534
Mean Anonmoly78.8195
Mean Motion15.27589982
Decay Rate0.00011258
L11 63822U 25092U 25353.47483578 .00011258 00000+0 41789-3 0 9991
L22 63822 43.0016 262.3430 0001089 281.2534 78.8195 15.27589982 36430



Live tracking and technical data element details for STARLINK-34094 (NORAD 63822). STARLINK-34094 can be tracked NOW for your location showing map with azimuth and elevation plus other details from your city location.







IsCatalogInMostPopularTable: catalog: 63822, numindb: 2
Update: records affected: 1



GetName: 63822 STARLINK-34094

Hit Count: updated at: Tue, 10 Feb 2026 02:30:34 GMT